Location: Bruderhein
(53.8035°N, 112.9265°W)
Time: 13:21:39
(UTC+00:00)

deb Delta 139 - Pass Details

Date: 11 December 2023
Orbit: 731 x 794 km, 98.6° (Epoch: 01 March)

Event Time Altitude Azimuth Distance (km) Brightness Sun altitude
Rises 03:14:23 0° 222° (SW) 3,240 ? -34.4°
Reaches altitude 10° 03:18:16 10° 253° (WSW) 2,304 ? -35.0°
Maximum altitude 03:20:16 12° 276° (W) 2,147 ? -35.3°
Drops below altitude 10° 03:22:16 10° 300° (WNW) 2,294 ? -35.6°
Sets 03:26:08 0° 330° (NNW) 3,210 ? -36.1°
